Weather History for Middletown, OH

Change the Weather History Date:

Sunday, March 17, 2013

  Actual Average (KDAY) Record (KDAY)
Temperature  
Mean Temperature 35 °F 41 °F  
Max Temperature 37 °F 50 °F 73 °F (1889)
Min Temperature 33 °F 32 °F 0 °F (1900)
Degree Days  
Heating Degree Days 30 24  
Month to date heating degree days 463  
Since 1 July heating degree days 4738  
Cooling Degree Days 0 0  
Month to date cooling degree days 0  
Year to date cooling degree days 0  
Moisture  
Dew Point 31 °F    
Average Humidity 83    
Maximum Humidity 94    
Minimum Humidity 75    
Precipitation  
Precipitation 0.00 in 0.11 in 0.82 in (1897)
Month to date precipitation 1.67  
Year to date precipitation 6.62  
Snow  
Snow 0.00 in 0.10 in 4.40 in (1973)
Month to date snowfall 2.3  
Since 1 July snowfall 21.6  
Snow Depth -    
Sea Level Pressure  
Sea Level Pressure 30.11 in    
Wind  
Wind Speed 9 mph (NE)    
Max Wind Speed 16 mph    
Max Gust Speed 21 mph    
Visibility 10 miles    
Events      
T = Trace of Precipitation, MM = Missing Value Source: NWS Daily Summary

Daily Weather History Graph

Daily Weather History Graph

Search for Another Location

Airport:

Trip Planner

Search our weather history database for the weather conditions in past years. The results will help you decide how hot, cold, wet, or windy it might be!

Date:

Astronomy

Mar. 17, 2013 Rise Set
Actual Time 7:45 AM EDT 7:46 PM EDT
Civil Twilight 7:18 AM EDT 8:13 PM EDT
Nautical Twilight 6:47 AM EDT 8:44 PM EDT
Astronomical Twilight 6:15 AM EDT 9:16 PM EDT
Moon 10:58 AM EDT (3/17) 12:52 AM EDT (3/17)
Length of Visible Light 12h 55m
Length of Day
12h 01m
Waxing Crescent, 31% of the Moon is Illuminated
Mar 17
Waxing Crescent
Mar 19
First Quarter
Mar 27
Full
Apr 3
Last Quarter
Apr 10
New

Hourly Weather History & Observations

Time (EDT) Temp. Windchill Dew Point Humidity Pressure Visibility Wind Dir Wind Speed Gust Speed Precip Events Conditions
12:15 AM 35.1 °F 30.1 °F 32.9 °F 92% 30.05 in 10.0 mi NE 5.8 mph - N/A   Overcast
12:35 AM 35.1 °F 29.3 °F 33.1 °F 92% 30.05 in 10.0 mi NNE 6.9 mph - N/A   Overcast
12:55 AM 35.1 °F 29.3 °F 33.3 °F 93% 30.05 in 10.0 mi NNE 6.9 mph - N/A   Overcast
1:15 AM 35.1 °F 31.0 °F 33.3 °F 93% 30.05 in 10.0 mi NNE 4.6 mph - N/A   Overcast
1:35 AM 35.1 °F 30.1 °F 33.4 °F 94% 30.05 in 10.0 mi NNE 5.8 mph - N/A   Overcast
1:55 AM 35.1 °F 30.1 °F 32.9 °F 92% 30.06 in 10.0 mi North 5.8 mph - N/A   Overcast
2:15 AM 35.1 °F 31.0 °F 32.9 °F 92% 30.06 in 10.0 mi NNE 4.6 mph - N/A   Overcast
2:35 AM 35.1 °F 28.6 °F 32.9 °F 92% 30.06 in 10.0 mi NE 8.1 mph - N/A   Overcast
2:55 AM 35.1 °F 30.1 °F 32.9 °F 92% 30.06 in 10.0 mi NNE 5.8 mph - N/A   Overcast
3:15 AM 35.1 °F 28.6 °F 32.9 °F 92% 30.06 in 10.0 mi NNE 8.1 mph - N/A   Overcast
3:35 AM 35.1 °F 29.3 °F 32.4 °F 90% 30.05 in 10.0 mi NNE 6.9 mph - N/A   Overcast
3:55 AM 35.1 °F 27.9 °F 32.4 °F 90% 30.06 in 10.0 mi NNE 9.2 mph - N/A   Overcast
4:15 AM 35.1 °F 26.9 °F 32.0 °F 89% 30.05 in 10.0 mi NNE 11.5 mph - N/A   Overcast
4:35 AM 35.1 °F 27.4 °F 31.6 °F 87% 30.06 in 10.0 mi NNE 10.4 mph - N/A   Overcast
4:55 AM 34.2 °F 26.2 °F 30.9 °F 88% 30.05 in 10.0 mi NNE 10.4 mph - N/A   Overcast
5:15 AM 34.0 °F 26.0 °F 30.7 °F 88% 30.05 in 10.0 mi NNE 10.4 mph - N/A   Overcast
5:35 AM 34.9 °F 28.3 °F 31.6 °F 88% 30.07 in 10.0 mi NE 8.1 mph - N/A   Overcast
5:55 AM 35.1 °F 29.3 °F 31.8 °F 88% 30.09 in 10.0 mi NNE 6.9 mph - N/A   Overcast
6:15 AM 35.1 °F 31.0 °F 31.6 °F 87% 30.11 in 10.0 mi NNE 4.6 mph - N/A   Overcast
6:35 AM 35.1 °F 29.3 °F 31.5 °F 87% 30.11 in 10.0 mi NNE 6.9 mph - N/A   Overcast
6:55 AM 35.1 °F 28.6 °F 31.1 °F 85% 30.13 in 10.0 mi NNE 8.1 mph - N/A   Overcast
7:15 AM 35.1 °F 31.0 °F 31.6 °F 87% 30.14 in 10.0 mi NE 4.6 mph - N/A   Overcast
7:35 AM 35.1 °F 30.1 °F 31.6 °F 87% 30.15 in 10.0 mi NNE 5.8 mph - N/A   Overcast
7:55 AM 35.1 °F 29.3 °F 31.1 °F 85% 30.15 in 10.0 mi NE 6.9 mph - N/A   Overcast
8:15 AM 34.7 °F 28.1 °F 30.9 °F 86% 30.15 in 10.0 mi NNE 8.1 mph - N/A   Overcast
8:35 AM 33.8 °F 26.4 °F 30.2 °F 87% 30.16 in 10.0 mi NNE 9.2 mph - N/A   Overcast
8:55 AM 33.8 °F 27.0 °F 30.2 °F 87% 30.17 in 10.0 mi NNE 8.1 mph - N/A   Overcast
9:15 AM 34.0 °F 28.0 °F 30.7 °F 88% 30.18 in 10.0 mi NNE 6.9 mph - N/A   Overcast
9:35 AM 35.1 °F 27.9 °F 32.0 °F 89% 30.18 in 10.0 mi ENE 9.2 mph - N/A   Overcast
9:55 AM 34.9 °F 26.6 °F 31.3 °F 87% 30.16 in 10.0 mi ENE 11.5 mph - N/A   Overcast
10:15 AM 35.1 °F 26.9 °F 30.6 °F 84% 30.15 in 10.0 mi NE 11.5 mph - N/A   Overcast
10:35 AM 35.1 °F 25.2 °F 30.4 °F 83% 30.15 in 10.0 mi NE 16.1 mph - N/A   Overcast
10:55 AM 35.1 °F 26.4 °F 29.3 °F 80% 30.16 in 10.0 mi ENE 12.7 mph - N/A   Overcast
11:15 AM 35.1 °F 26.4 °F 29.1 °F 79% 30.17 in 10.0 mi ENE 12.7 mph - N/A   Overcast
11:35 AM 35.1 °F 26.4 °F 29.3 °F 80% 30.17 in 10.0 mi ENE 12.7 mph - N/A   Overcast
11:55 AM 35.1 °F 25.5 °F 28.6 °F 77% 30.17 in 10.0 mi East 15.0 mph - N/A   Overcast
12:15 PM 35.1 °F 25.5 °F 28.4 °F 77% 30.16 in 10.0 mi ENE 15.0 mph - N/A   Overcast
12:35 PM 35.1 °F 26.4 °F 28.8 °F 78% 30.17 in 10.0 mi ENE 12.7 mph - N/A   Mostly Cloudy
12:55 PM 35.1 °F 27.4 °F 28.4 °F 77% 30.16 in 10.0 mi East 10.4 mph - N/A   Overcast
1:15 PM 35.1 °F 25.9 °F 29.1 °F 79% 30.16 in 10.0 mi NE 13.8 mph - N/A   Overcast
1:35 PM 35.6 °F 27.5 °F 29.1 °F 77% 30.15 in 10.0 mi ENE 11.5 mph - N/A   Overcast
1:55 PM 35.1 °F 26.9 °F 29.1 °F 79% 30.15 in 10.0 mi East 11.5 mph 19.6 mph N/A   Overcast
2:15 PM 35.8 °F 26.9 °F 29.7 °F 78% 30.15 in 10.0 mi ENE 13.8 mph - N/A   Overcast
2:35 PM 35.6 °F 28.0 °F 29.8 °F 80% 30.15 in 10.0 mi NE 10.4 mph - N/A   Overcast
2:55 PM 35.6 °F 28.0 °F 29.8 °F 80% 30.15 in 10.0 mi ENE 10.4 mph - N/A   Overcast
3:15 PM 36.1 °F 28.7 °F 30.4 °F 80% 30.14 in 10.0 mi ENE 10.4 mph - N/A   Overcast
3:35 PM 37.6 °F 30.5 °F 31.3 °F 78% 30.14 in 10.0 mi East 10.4 mph - N/A   Overcast
3:55 PM 37.6 °F 30.0 °F 31.5 °F 79% 30.13 in 10.0 mi ENE 11.5 mph - N/A   Overcast
4:15 PM 37.6 °F 30.5 °F 31.6 °F 79% 30.13 in 10.0 mi East 10.4 mph - N/A   Overcast
4:35 PM 37.6 °F 30.0 °F 31.3 °F 78% 30.12 in 10.0 mi East 11.5 mph - N/A   Overcast
4:55 PM 37.6 °F 30.0 °F 31.1 °F 77% 30.11 in 10.0 mi East 11.5 mph - N/A   Overcast
5:15 PM 37.6 °F 29.1 °F 31.1 °F 77% 30.10 in 10.0 mi ENE 13.8 mph - N/A   Overcast
5:35 PM 37.6 °F 29.6 °F 30.7 °F 76% 30.10 in 10.0 mi ENE 12.7 mph - N/A   Overcast
5:55 PM 37.6 °F 29.6 °F 30.6 °F 76% 30.09 in 10.0 mi East 12.7 mph - N/A   Overcast
6:15 PM 37.6 °F 29.6 °F 30.9 °F 77% 30.09 in 10.0 mi East 12.7 mph - N/A   Overcast
6:35 PM 37.6 °F 28.8 °F 31.1 °F 77% 30.08 in 10.0 mi ENE 15.0 mph 18.4 mph N/A   Overcast
6:55 PM 37.6 °F 30.0 °F 31.3 °F 78% 30.09 in 10.0 mi East 11.5 mph - N/A   Overcast
7:15 PM 37.6 °F 29.1 °F 31.1 °F 77% 30.09 in 10.0 mi East 13.8 mph 18.4 mph N/A   Overcast
7:35 PM 37.6 °F 28.4 °F 31.1 °F 77% 30.09 in 10.0 mi East 16.1 mph - N/A   Overcast
7:55 PM 37.6 °F 29.6 °F 31.1 °F 77% 30.10 in 10.0 mi East 12.7 mph 18.4 mph N/A   Overcast
8:15 PM 37.6 °F 29.1 °F 31.1 °F 77% 30.10 in 10.0 mi East 13.8 mph 18.4 mph N/A   Overcast
8:35 PM 37.6 °F 31.0 °F 30.9 °F 77% 30.09 in 10.0 mi East 9.2 mph - N/A   Overcast
8:55 PM 37.6 °F 31.0 °F 30.7 °F 76% 30.08 in 10.0 mi East 9.2 mph - N/A   Overcast
9:15 PM 37.6 °F 31.0 °F 30.7 °F 76% 30.08 in 10.0 mi East 9.2 mph - N/A   Overcast
9:35 PM 37.6 °F 30.0 °F 30.4 °F 75% 30.07 in 10.0 mi East 11.5 mph - N/A   Overcast
9:55 PM 37.6 °F 29.1 °F 30.2 °F 75% 30.07 in 10.0 mi East 13.8 mph 20.7 mph N/A   Overcast
10:15 PM 37.6 °F 30.0 °F 30.2 °F 75% 30.06 in 10.0 mi East 11.5 mph 16.1 mph N/A   Overcast
10:35 PM 37.6 °F 29.6 °F 30.4 °F 75% 30.06 in 10.0 mi East 12.7 mph - N/A   Overcast
10:55 PM 37.6 °F 30.5 °F 30.9 °F 77% 30.05 in 10.0 mi East 10.4 mph - N/A   Overcast
11:15 PM 37.6 °F 29.6 °F 31.6 °F 79% 30.05 in 10.0 mi ENE 12.7 mph - N/A   Overcast
11:35 PM 37.6 °F 29.6 °F 31.6 °F 79% 30.05 in 10.0 mi ENE 12.7 mph - N/A   Overcast
11:55 PM 37.6 °F 30.5 °F 31.8 °F 80% 30.04 in 10.0 mi East 10.4 mph - N/A   Overcast